Regional Weather Roundup
Issued by NWS Charleston, SC

Current Version | Previous Version | Text Only | Print | Product List | Glossary Off
Versions: 1 2 3 4 5 6 7 8 9 10 11 12 13 14 15 16 17 18 19 20 21 22 23 24 25 26 27 28 29 30 31 32 33 34 35 36 37 38 39 40 41 42 43 44 45 46 47 48 49 50

000
ASUS42 KCHS 221612
RWRCHS

Regional Weather Roundup
National Weather Service Charleston SC
1100 AM EST THU FEB 22 2018

NOTE: "fair" indicates few or no clouds below 12,000 feet with no
significant weather and/or obstructions to visibility.

Not all stations are quality controlled. Use data with caution,
especially dewpoint observations.

SCZ027-030-031-034>040-042>050-221700-
...Southeast South Carolina...

CITY           SKY/WX    TMP DP  RH WIND       PRES   REMARKS
N Charleston   PTSUNNY   78  61  55 S8        30.50R
Waterfront Prk   N/A     70  66  87 CALM      30.35R
Mount Pleasant FAIR      77  63  61 SE9       30.50S
Johns Island   FAIR      77  63  61 SW7       30.50S
Pinopolis        N/A     61  61 100 VRB2      30.42S
Moncks Corner  CLOUDY    73  63  68 S7        30.50S
Summerville    FAIR      73  61  64 SE6       30.51S
Beaufort MCAS  PTSUNNY   75  67  76 CALM      30.50S
Beaufort Arpt  CLOUDY    72  63  73 S3        30.50S
Hilton Head Is MOSUNNY   75  63  64 S9        30.51R
Walterboro     CLOUDY    73  64  73 SW5       30.51S
Allendale      CLOUDY    73  66  78 VRB7      30.49S

...Southern Midlands and Pee Dee...

CITY           SKY/WX    TMP DP  RH WIND       PRES   REMARKS
Georgetown     PTSUNNY   75  63  64 SE6       30.51S
Kingstree      CLOUDY    68  66  94 SW5       30.51S
Orangeburg     CLOUDY    73  64  73 S9        30.50S
Barnwell         N/A     75  68  78 S7        30.49F
Aiken          CLOUDY    73  64  73 SW8       30.52S
Manning        CLOUDY    70  64  83 MISG      30.51S
Columbia       PTSUNNY   75  66  73 S8        30.47F
Sumter         CLOUDY    73  64  73 S10       30.47F
Florence       CLOUDY    73  66  78 SW9       30.50S
Myrtle Beach   FAIR      73  64  73 S8        30.52S
N Myrtle Beach FAIR      72  64  76 S9        30.51S

$$

GAZ063-065-086>088-099>101-113>116-118-119-134>141-150-221700-
...Southeast Georgia...

CITY           SKY/WX    TMP DP  RH WIND       PRES   REMARKS
Savannah Arpt  PTSUNNY   75  62  64 S6        30.49F
Hunter AAF     PTSUNNY   76  72  88 SW3       30.47S
Fort Stewart   PTSUNNY   74  63  69 SW3       30.47S
Statesboro     CLOUDY    75  63  66 S7        30.50S
Sylvania       CLOUDY    73  68  84 S5        30.50S
Claxton        CLOUDY    74  67  77 CALM      30.49F

...CSRA, Central and far Southeast Georgia...

CITY           SKY/WX    TMP DP  RH WIND       PRES   REMARKS
Thomson        CLOUDY    76  64  66 W7        30.53S
Augusta-Bush   PTSUNNY   77  65  66 SW8       30.47F
Augusta-Daniel FAIR      75  64  68 SW7       30.48F
Swainsboro     PTSUNNY   73  66  78 S7        30.49F
Vidalia        CLOUDY    75  66  73 SW6       30.49S
Eastman        CLOUDY    76  57  51 S9        30.50F
Hazlehurst     CLOUDY    74  63  67 SW3       30.48S
Alma           PTSUNNY   76  64  66 SE6       30.48S
Waycross       FAIR      76  62  61 CALM      30.48S
Jesup          FAIR      77  63  61 CALM      30.49S
Baxley         PTSUNNY   72  66  83 SE5       30.48S
Brunswick      FAIR      77  59  53 S7        30.49S
Saint Simons   FAIR      76  64  66 SE8       30.48S

$$

SCZ027-028-034-036>038-045-046-048>050-GAZ119-141-221700-
...Lake and Supplemental Coastal Observations...

STATION/POSITION TIME  TEMP    WIND        PRES    WAVE   SWELL
                       AIR SEA DIR/SP/G            HT/PER HT/PER/DIR
                 (UTC) (F)     (DEG/KT/KT) (MB)    (FT/S) (FT/S/D)
Winyah Bay       1445   72     160/  3     1033.0
Lake Murray      1520   67     170/  3/  3 1031.5S
ACE Basin NERRS  1445   72     180/  1     1033.0
Fort Pulaski     1536   64 61  110/  5/  5 1033.1R
Sapelo Island    1500   75     130/  6     1032.0

$$

ANZ835-935-AMZ111-154-330-350-352-354-370-450-454-472-221700-
...C-MAN and Buoy Observations...

STATION/POSITION TIME  TEMP    WIND        PRES    WAVE   SWELL
                       AIR SEA DIR/SP/G            HT/PER HT/PER/DIR
                 (UTC) (F)     (DEG/KT/KT) (MB)    (FT/S) (FT/S/D)
Buoy 41004       1550   71 69   70/  2/  2 1032.6F   4/ 8   5/130/ 8
Buoy 41008       1550   65 59   80/  4/  6 1032.0R   4/ 6   3/140/ 6
Folly Beach CMAN 1500   63      70/  2/  2 1033.2R
Capers Nearshore 1508   61 59   90/  4/  6 1032.5R
Fripp Nearshore  1508   63 60   80/  4/  6 1031.4F


STATION/POSITION TIME  TEMP    WIND        PRES    WAVE   SWELL
                       AIR SEA DIR/SP/G            HT/PER HT/PER/DIR
                 (UTC) (F)     (DEG/KT/KT) (MB)    (FT/S) (FT/S/D)
5E St. Marys GA  1600      64                N/A     4/ 6   2/ 90/15
Frying Pan Buoy  1550   72 70  210/  6/  6 1033.1F   4/ 8   3/140/ 8
Buoy 41025       1550   72 69  210/ 12/ 14 1033.7S   4/14   3/110/14
Cape Lookout NC  1500          220/  6/  7 1033.4S
Buoy 41002       1550   72 74  120/  8/ 12 1033.6R   6/ 9   7/120/ 9
Buoy 41010       NOT AVBL
St Augustine FL  1600   69 66   30/  4/  4 1031.7S


$$




USA.gov is the U.S. government's official web portal to all federal, state and local government web resources and services.